Probability
0 0 0 0 0 0 0 0 0 0 0 0 0 13 45 68 13 23 6 3 48 100 100 100 100 100 100 100 100 100 100 100 100 100 100 100 100 100 100 100 100 100 100 100 100 100 100 97 94
0 0 0 0 0 0 0 0 0 0 0 3 29 81 94 90 74 35 13 19 61 100 100 100 100 100 100 100 100 100 100 100 100 100 100 100 100 100 100 100 100 100 100 100 100 100 97 97 94
0 0 0 0 0 0 0 0 0 0 0 0 0 26 100 100 94 77 32 26 45 87 100 100 100 100 100 100 100 100 100 100 100 100 100 100 100 100 100 100 100 100 100 100 100 100 97 97 81
0 0 0 0 0 0 0 0 0 0 0 0 13 58 100 100 100 97 29 10 16 71 100 100 100 100 100 100 100 100 100 100 100 100 100 100 100 100 100 100 100 100 100 100 100 100 97 94 74
0 0 0 0 0 0 0 0 0 0 0 10 58 87 100 100 100 81 45 16 16 65 100 100 100 100 100 100 100 100 100 100 100 100 100 100 100 100 100 100 100 100 100 100 100 100 97 94 68
0 0 0 0 0 0 0 0 0 0 3 29 65 74 94 100 97 94 77 68 45 90 100 100 100 100 100 100 100 100 100 100 100 100 100 100 100 100 100 100 100 100 100 100 100 94 90 81 61
0 0 0 0 0 0 0 0 0 0 0 16 35 61 81 90 97 100 97 97 84 100 100 100 100 100 100 100 100 100 100 100 100 100 100 100 100 100 100 100 100 100 100 97 87 84 74 68 48
0 0 0 0 0 0 0 0 0 0 0 13 39 61 77 84 100 97 100 100 100 100 100 100 100 100 100 100 100 100 100 100 100 100 100 100 100 100 100 100 100 97 97 90 84 77 71 58 39
0 0 0 0 0 0 0 0 0 3 3 10 26 48 71 87 90 97 100 100 100 100 100 100 100 100 100 100 100 100 100 100 100 97 97 100 94 97 100 100 100 97 97 87 84 74 61 48 13
0 0 0 0 0 0 0 0 0 3 6 26 48 58 71 84 87 97 100 100 100 97 97 100 97 97 100 100 100 90 94 97 97 97 97 90 32 19 87 100 100 100 100 97 81 74 61 19 3
0 0 0 0 0 0 0 0 0 0 19 35 55 68 65 81 87 94 97 100 100 94 100 100 97 97 90 90 90 97 94 97 71 61 81 58 29 16 35 61 100 97 100 68 35 29 16 6 0
0 0 0 0 0 0 0 0 0 0 10 42 55 65 71 77 90 90 90 94 94 100 100 100 97 94 81 87 90 87 77 65 35 35 10 3 16 23 3 0 6 29 29 16 0 0 0 0 0
0 0 0 0 0 0 0 0 3 6 23 42 42 52 58 61 71 84 87 94 94 100 100 100 97 87 84 74 74 84 77 71 32 61 42 10 16 23 13 6 0 0 0 0 0 0 0 0 0
0 0 0 0 0 0 0 0 0 6 26 32 35 26 32 48 65 87 94 90 90 100 100 100 97 90 84 81 81 90 87 74 71 61 58 48 29 10 13 6 3 0 0 0 0 0 0 0 0
0 0 0 0 0 0 0 0 0 3 26 32 32 26 29 39 48 74 84 84 84 81 94 100 97 90 87 81 77 94 94 84 68 39 26 29 10 6 0 0 0 0 0 0 0 0 0 0 0
0 0 0 0 0 0 0 0 0 0 6 19 16 19 26 29 39 65 74 77 61 68 74 94 100 87 48 39 52 77 74 61 35 19 6 6 3 3 0 0 0 0 0 0 0 0 0 0 0
0 0 0 0 0 0 0 0 0 0 0 0 6 16 23 23 19 52 74 68 45 58 81 87 90 58 42 23 10 23 26 23 10 3 0 0 0 0 0 0 0 0 0 0 0 0 0 0 0
0 0 0 0 0 0 0 0 0 0 0 0 3 13 16 13 13 35 65 55 39 48 61 90 94 81 55 19 6 3 3 6 3 0 0 0 0 0 0 0 0 0 0 0 0 0 0 0 0
0 0 0 0 0 0 0 0 0 0 0 0 6 13 13 10 10 32 48 32 23 39 48 81 94 84 65 45 13 3 0 0 0 0 0 0 0 0 0 0 0 0 0 0 0 0 0 0 0
0 0 0 0 0 0 0 0 0 0 0 0 6 6 6 13 26 55 48 29 19 16 35 65 94 81 61 39 10 0 0 0 0 0 0 0 0 0 0 0 0 0 0 0 0 0 0 0 0
0 0 0 0 0 0 0 0 0 0 0 0 3 13 26 32 55 71 61 45 29 32 35 61 97 84 55 26 3 0 0 0 0 0 0 0 0 0 0 0 0 0 0 0 0 0 0 0 0
0 0 0 0 0 0 0 0 0 0 0 0 0 6 29 48 61 71 65 61 52 48 52 81 87 71 42 10 3 0 0 0 0 0 0 0 0 0 0 0 0 0 0 0 0 0 0 0 0
0 0 0 0 0 0 0 0 0 0 0 0 0 0 19 61 81 77 65 61 61 68 84 84 68 32 13 3 0 0 0 0 0 0 0 0 0 0 0 0 0 0 0 0 0 0 0 0 0
0 0 0 0 0 0 0 0 0 0 0 0 0 3 6 39 81 71 55 58 74 61 74 55 16 6 0 0 0 0 0 0 0 0 0 0 0 0 0 0 0 0 0 0 0 0 0 0 0
0 0 0 0 0 0 0 0 0 0 0 3 6 13 10 48 84 74 71 74 65 48 19 6 3 0 0 0 0 0 0 0 0 0 0 0 0 0 0 0 0 0 0 0 0 0 0 0 0
0 0 0 0 0 0 0 0 0 6 26 39 55 55 55 77 77 74 61 58 29 10 3 3 0 0 0 0 0 0 0 0 0 0 0 0 0 0 0 0 0 0 0 0 0 0 0 0 0
0 0 0 0 0 0 0 0 3 35 61 90 97 90 87 81 65 32 16 3 0 0 0 0 0 0 0 0 0 0 0 0 0 0 0 0 0 0 0 0 0 0 0 0 0 0 0 0 0
0 0 0 0 0 0 0 0 0 19 61 97 90 81 52 32 16 3 0 0 0 0 0 0 0 0 0 0 0 0 0 0 0 0 0 0 0 0 0 0 0 0 0 0 0 0 0 0 0
0 0 0 0 0 0 0 0 16 16 52 77 55 26 16 6 3 0 0 0 0 0 0 0 0 0 0 0 0 0 0 0 0 0 0 0 0 0 0 0 0 0 0 0 0 0 0 0 0
0 0 0 0 0 0 0 0 10 6 13 29 16 6 0 0 0 0 0 0 0 0 0 0 0 0 0 0 0 0 0 0 0 0 0 0 0 0 0 0 0 0 0 0 0 0 0 0 0
Height
5896 5899 5902 5906 5908 5909 5907 5904 5904 5903 5901 5903 5905 5905 5905 5904 5903 5904 5901 5899 5898 5897 5896 5896 5897 5897 5897 5897 5897 5896 5896 5895 5895 5895 5895 5895 5896 5896 5896 5897 5897 5897 5897 5896 5896 5896 5895 5895 5895
5893 5896 5900 5904 5906 5906 5905 5904 5905 5902 5902 5904 5906 5906 5905 5903 5902 5900 5899 5897 5896 5895 5894 5894 5894 5895 5895 5896 5896 5895 5895 5894 5894 5894 5894 5894 5894 5894 5895 5895 5895 5895 5895 5894 5893 5893 5892 5892 5892
5891 5894 5898 5901 5903 5904 5904 5904 5904 5901 5901 5904 5906 5906 5904 5902 5901 5899 5897 5897 5896 5895 5894 5893 5893 5893 5893 5893 5894 5894 5893 5893 5893 5893 5893 5893 5893 5893 5893 5893 5893 5893 5892 5891 5891 5890 5889 5888 5888
5890 5893 5896 5899 5901 5902 5902 5902 5902 5901 5901 5903 5905 5905 5903 5901 5900 5897 5896 5896 5895 5894 5893 5893 5892 5891 5891 5891 5891 5892 5892 5892 5892 5891 5891 5891 5891 5891 5891 5891 5890 5890 5889 5889 5888 5887 5886 5885 5885
5888 5890 5894 5897 5898 5898 5898 5899 5900 5901 5902 5903 5905 5903 5901 5901 5899 5897 5895 5894 5894 5894 5893 5892 5891 5890 5890 5890 5890 5890 5890 5890 5889 5889 5889 5889 5889 5889 5889 5888 5888 5887 5887 5886 5885 5884 5883 5882 5881
5887 5889 5892 5894 5896 5896 5896 5897 5897 5899 5902 5903 5903 5901 5900 5900 5899 5897 5895 5895 5894 5893 5892 5891 5890 5889 5889 5888 5888 5888 5887 5887 5887 5887 5887 5887 5887 5887 5887 5886 5886 5885 5884 5883 5883 5882 5881 5880 5878
5887 5889 5891 5894 5895 5895 5895 5894 5895 5898 5900 5901 5901 5900 5899 5899 5899 5898 5896 5895 5894 5893 5892 5891 5890 5889 5888 5887 5886 5886 5885 5885 5885 5885 5885 5885 5884 5884 5884 5884 5883 5883 5882 5881 5880 5879 5878 5877 5875
5884 5889 5890 5893 5893 5893 5893 5893 5896 5898 5898 5899 5899 5900 5900 5900 5899 5898 5895 5894 5893 5892 5892 5891 5890 5888 5887 5886 5885 5885 5884 5884 5883 5883 5882 5882 5882 5882 5882 5881 5880 5879 5879 5878 5877 5876 5874 5873 5871
5883 5887 5889 5890 5890 5890 5892 5895 5897 5897 5896 5897 5898 5899 5900 5900 5900 5898 5896 5894 5893 5892 5891 5890 5889 5888 5887 5885 5884 5883 5883 5882 5881 5881 5880 5880 5880 5879 5879 5878 5877 5876 5874 5873 5872 5871 5870 5868 5867
5883 5885 5887 5889 5888 5887 5888 5891 5895 5895 5894 5895 5897 5898 5899 5899 5899 5899 5897 5895 5894 5892 5891 5889 5888 5887 5885 5884 5883 5882 5881 5881 5880 5879 5878 5878 5877 5876 5875 5874 5873 5872 5871 5870 5869 5867 5866 5864 5863
5881 5883 5885 5885 5885 5884 5886 5889 5891 5892 5892 5893 5894 5895 5896 5897 5899 5899 5898 5896 5894 5892 5890 5889 5887 5886 5884 5883 5882 5881 5880 5879 5878 5877 5876 5876 5875 5874 5873 5872 5870 5869 5868 5867 5865 5864 5862 5861 5859
5879 5880 5881 5882 5881 5881 5882 5886 5888 5888 5888 5890 5891 5892 5893 5894 5897 5898 5898 5897 5895 5892 5890 5887 5885 5884 5883 5882 5880 5879 5879 5878 5877 5876 5875 5874 5872 5871 5871 5869 5868 5867 5865 5864 5862 5861 5859 5857 5856
5877 5877 5879 5879 5879 5879 5880 5883 5884 5884 5885 5886 5887 5888 5889 5891 5893 5895 5896 5895 5894 5892 5890 5887 5885 5883 5882 5881 5879 5878 5877 5876 5875 5874 5873 5872 5871 5869 5868 5867 5866 5864 5862 5861 5859 5857 5856 5854 5853
5874 5873 5874 5875 5876 5878 5878 5880 5881 5882 5883 5883 5883 5885 5886 5886 5889 5890 5892 5891 5890 5889 5888 5886 5884 5883 5882 5880 5879 5877 5876 5875 5874 5873 5872 5870 5869 5866 5864 5863 5862 5860 5859 5857 5856 5854 5852 5850 5848
5868 5869 5870 5873 5874 5875 5876 5878 5879 5879 5879 5879 5880 5881 5881 5882 5884 5885 5887 5888 5886 5885 5883 5882 5881 5880 5879 5879 5877 5876 5875 5873 5872 5870 5868 5867 5866 5864 5861 5859 5858 5856 5854 5852 5850 5847 5845 5843 5841
5861 5864 5867 5870 5871 5872 5874 5876 5879 5877 5875 5875 5876 5876 5877 5877 5878 5879 5881 5883 5881 5879 5878 5877 5876 5874 5873 5873 5873 5873 5871 5870 5867 5865 5863 5862 5860 5858 5856 5853 5851 5849 5847 5845 5842 5840 5837 5835 5833
5857 5860 5863 5866 5868 5869 5870 5872 5876 5875 5872 5872 5871 5872 5872 5872 5872 5873 5875 5876 5876 5874 5872 5871 5870 5867 5865 5865 5866 5866 5865 5864 5862 5860 5858 5856 5854 5851 5849 5846 5844 5842 5840 5838 5836 5833 5830 5827 5825
5853 5855 5857 5861 5864 5863 5863 5865 5869 5870 5870 5869 5868 5868 5868 5867 5868 5868 5869 5869 5869 5868 5867 5865 5864 5862 5859 5857 5857 5858 5857 5856 5855 5853 5852 5850 5848 5845 5842 5840 5838 5836 5834 5831 5829 5826 5822 5819 5817
5845 5847 5850 5855 5856 5855 5855 5857 5861 5863 5864 5864 5864 5863 5863 5862 5863 5863 5863 5862 5862 5862 5861 5859 5858 5856 5854 5852 5851 5851 5850 5849 5848 5846 5844 5842 5840 5838 5835 5833 5831 5828 5826 5823 5820 5817 5813 5810 5808
5837 5839 5843 5848 5851 5849 5849 5851 5853 5855 5857 5858 5859 5859 5858 5857 5857 5857 5857 5856 5856 5855 5854 5853 5852 5850 5847 5846 5846 5845 5843 5842 5840 5838 5836 5834 5832 5829 5826 5824 5821 5819 5816 5813 5810 5806 5803 5800 5797
5831 5834 5838 5841 5843 5842 5843 5845 5848 5850 5851 5854 5855 5855 5853 5852 5851 5851 5851 5851 5850 5849 5848 5846 5844 5843 5841 5839 5839 5837 5836 5834 5832 5830 5828 5825 5823 5820 5817 5814 5812 5809 5806 5802 5799 5795 5792 5788 5785
5826 5830 5832 5834 5836 5836 5838 5837 5843 5845 5846 5847 5848 5849 5847 5846 5846 5846 5847 5847 5845 5844 5841 5840 5838 5836 5834 5832 5830 5828 5827 5825 5823 5821 5819 5816 5813 5810 5808 5805 5802 5799 5795 5792 5788 5784 5781 5777 5773
5821 5824 5826 5828 5829 5831 5833 5833 5837 5840 5841 5842 5842 5843 5842 5841 5840 5840 5841 5841 5840 5838 5836 5834 5831 5828 5826 5823 5823 5821 5819 5817 5815 5813 5810 5807 5805 5802 5799 5795 5792 5788 5785 5781 5778 5774 5770 5766 5762
5816 5819 5821 5823 5824 5826 5829 5828 5830 5833 5833 5833 5834 5835 5835 5834 5833 5834 5835 5835 5834 5832 5830 5828 5824 5822 5819 5817 5815 5814 5812 5811 5808 5805 5802 5800 5797 5794 5790 5786 5782 5778 5775 5771 5767 5762 5759 5754 5749
5810 5813 5816 5817 5818 5821 5823 5821 5824 5824 5824 5824 5825 5826 5827 5827 5827 5828 5828 5828 5827 5825 5822 5819 5817 5814 5812 5810 5808 5807 5805 5804 5801 5798 5795 5792 5789 5785 5781 5777 5773 5769 5765 5761 5756 5752 5747 5741 5736
5805 5808 5811 5813 5814 5816 5817 5817 5819 5818 5818 5818 5819 5819 5820 5821 5821 5821 5821 5820 5818 5816 5814 5811 5809 5806 5804 5803 5801 5800 5798 5795 5793 5790 5787 5783 5780 5776 5772 5767 5763 5758 5754 5749 5744 5739 5733 5728 5722
5801 5803 5806 5808 5808 5809 5811 5813 5813 5812 5812 5812 5812 5813 5813 5814 5814 5814 5813 5811 5809 5807 5805 5803 5801 5799 5797 5796 5794 5792 5789 5787 5784 5781 5777 5773 5769 5765 5761 5756 5752 5747 5742 5736 5730 5725 5719 5713 5707
5794 5798 5800 5801 5801 5802 5805 5806 5807 5806 5806 5806 5806 5806 5807 5807 5807 5806 5804 5802 5799 5798 5796 5794 5792 5791 5789 5788 5785 5783 5780 5778 5774 5771 5767 5763 5758 5754 5749 5744 5739 5734 5728 5722 5716 5710 5704 5698 5692
5788 5790 5791 5793 5794 5796 5797 5801 5800 5800 5800 5800 5800 5800 5799 5799 5799 5798 5796 5794 5791 5789 5786 5784 5783 5783 5781 5779 5777 5774 5771 5768 5764 5760 5756 5751 5747 5742 5737 5731 5725 5719 5712 5706 5700 5694 5689 5683 5676
5781 5782 5783 5785 5787 5789 5790 5794 5792 5793 5793 5794 5794 5793 5792 5791 5790 5789 5788 5786 5783 5781 5779 5777 5777 5775 5774 5771 5768 5765 5761 5757 5753 5749 5744 5739 5734 5729 5723 5717 5711 5704 5698 5691 5685 5679 5673 5667 5661
Wind_Speed
21 19 18 16 14 11 9 9 10 9 12 15 19 22 23 20 16 12 10 11 12 13 13 13 14 15 16 18 19 20 20 19 19 19 19 19 19 19 18 18 18 18 18 18 18 18 19 19 20
23 20 17 16 14 14 15 13 9 9 12 14 18 22 20 16 11 9 8 8 8 9 10 11 12 13 14 16 17 19 18 17 17 17 17 17 17 18 17 18 18 18 19 20 20 20 21 22 22
17 17 16 16 17 17 16 12 8 9 14 16 18 18 15 8 5 5 6 7 7 6 6 7 9 11 12 14 16 18 17 16 16 16 15 15 15 16 16 17 19 20 21 22 22 22 23 23 24
13 15 16 19 20 18 14 11 7 8 14 16 15 12 6 3 5 6 7 8 8 7 6 6 7 8 10 13 15 17 17 17 16 15 15 14 14 14 15 17 19 20 21 21 21 21 21 21 22
14 17 20 23 22 17 12 9 4 6 14 14 10 6 1 4 7 8 9 10 9 8 8 8 7 7 8 9 11 13 13 13 13 12 13 13 13 14 15 17 18 19 18 18 18 18 18 19 20
16 20 25 25 20 17 11 4 3 11 14 11 7 4 4 6 9 10 10 10 9 9 9 9 9 8 8 8 9 10 10 10 10 10 12 13 14 15 16 17 18 18 18 18 19 19 20 21 22
19 23 25 22 18 14 7 0 7 15 14 11 5 5 5 8 11 12 12 12 10 10 10 10 8 8 7 7 7 8 9 10 10 12 13 14 15 16 17 18 18 19 20 20 21 22 23 24 24
22 26 25 21 17 10 4 1 9 15 14 9 7 6 6 9 12 13 13 13 11 10 10 10 8 7 7 7 7 7 8 9 10 11 13 14 15 16 16 18 19 21 21 22 23 23 24 24 25
24 28 26 22 18 13 6 5 11 14 13 10 8 6 6 7 10 12 13 13 12 11 10 9 8 7 7 8 7 7 8 8 9 10 12 13 15 16 17 19 20 20 20 20 21 22 22 23 24
26 28 25 23 20 17 11 9 12 14 14 12 10 7 6 6 7 9 11 12 12 12 11 9 9 8 8 8 8 8 9 9 9 9 10 12 14 15 16 17 17 18 18 18 19 20 21 22 23
27 28 27 25 22 18 12 9 13 15 16 13 13 12 10 8 7 8 10 10 11 12 12 11 11 10 8 8 9 9 10 10 10 10 10 11 12 13 13 13 14 15 15 15 16 17 18 20 21
27 29 28 26 23 20 16 13 17 19 17 15 15 15 14 13 12 11 13 11 11 13 14 14 14 12 11 9 10 10 11 12 12 11 11 11 11 11 11 11 11 12 13 13 13 14 15 17 19
25 29 28 27 24 21 20 20 22 22 21 19 18 18 18 17 17 13 13 15 15 14 15 16 16 15 13 12 11 11 13 14 14 13 12 12 13 13 13 13 13 14 14 15 15 15 16 17 18
25 30 31 29 26 22 23 26 26 25 24 23 21 20 21 21 20 17 17 19 20 19 18 17 16 14 13 11 11 12 13 15 15 16 15 15 15 16 17 17 17 17 18 18 19 20 21 22 22
29 31 30 28 26 23 22 25 26 26 27 26 24 22 24 26 24 24 23 23 23 23 23 21 19 17 15 12 11 11 13 15 17 18 19 19 19 20 21 22 22 22 23 24 25 26 27 28 29
33 32 29 27 26 24 23 20 22 27 29 28 26 24 26 30 30 29 28 26 26 28 27 26 24 23 21 18 15 14 15 17 19 21 23 24 25 26 27 29 29 30 30 31 32 33 34 35 35
34 32 30 28 26 24 23 18 18 25 29 29 27 26 28 32 34 35 34 32 30 31 30 29 28 27 27 25 22 20 20 21 23 25 27 28 30 31 33 34 35 36 37 38 38 39 40 41 41
32 33 31 28 23 22 21 17 15 19 26 28 27 28 30 33 36 37 37 36 35 33 33 34 32 31 32 32 30 26 25 26 27 29 30 32 33 35 37 38 40 41 42 43 43 44 45 45 46
31 33 32 29 28 29 26 22 19 18 24 28 28 29 31 35 38 39 39 39 38 37 36 35 34 34 34 33 33 31 30 31 32 33 34 34 36 38 40 42 44 45 46 47 47 48 49 49 49
33 33 31 29 30 30 28 26 24 23 25 27 29 32 35 39 42 42 41 41 40 39 38 38 37 36 36 35 35 34 34 34 36 37 38 38 39 41 44 46 47 48 49 49 49 50 50 51 51
31 31 29 29 30 32 33 32 27 25 25 28 32 35 39 43 44 43 42 42 40 39 39 39 39 40 40 39 37 36 35 36 38 39 40 41 42 44 46 47 48 48 48 48 49 49 50 51 52
27 26 27 28 32 34 35 37 32 30 29 31 34 36 40 43 43 43 42 40 38 38 39 40 41 42 42 41 37 36 36 38 39 39 40 42 44 45 45 47 47 48 48 48 47 47 48 49 51
24 22 22 25 29 32 34 37 34 32 35 36 38 39 41 43 43 40 36 34 34 37 40 41 42 42 42 39 37 36 37 38 39 40 41 42 42 44 46 47 48 48 48 48 47 47 48 49 51
20 20 22 25 27 26 22 28 26 24 31 38 41 41 42 42 40 36 33 33 35 39 41 42 43 43 41 40 37 36 36 37 39 40 40 42 43 44 46 47 47 47 48 48 48 49 50 53 56
22 22 23 24 23 18 14 20 15 15 23 29 32 33 34 36 36 35 33 34 38 41 43 45 44 43 41 40 38 36 36 37 39 40 41 42 44 45 46 46 47 48 48 49 50 53 55 57 59
23 23 23 23 21 17 17 19 14 17 20 21 21 23 24 27 30 31 32 35 39 42 43 43 41 41 39 38 37 36 37 38 40 42 43 44 45 46 46 47 48 49 50 52 54 57 59 60 61
21 22 22 24 24 24 21 19 18 21 21 21 21 21 22 24 28 31 33 37 40 42 41 40 39 37 36 36 36 37 39 41 43 45 46 47 48 48 49 50 51 53 55 56 58 60 61 61 62
25 22 24 26 27 26 23 19 19 22 24 26 28 27 26 28 30 34 37 39 40 39 38 37 36 33 33 35 36 39 42 44 46 47 49 49 50 51 52 54 56 58 60 61 62 62 63 63 64
28 29 29 28 26 24 24 22 22 23 24 25 28 29 30 31 33 35 38 39 40 39 36 34 31 31 33 35 38 42 45 47 49 50 51 52 53 55 57 59 60 62 64 64 64 64 64 64 65
28 32 33 32 28 25 24 26 26 28 28 29 31 33 35 36 36 38 40 40 41 40 35 30 29 32 35 39 42 45 48 50 52 53 53 55 57 60 61 62 62 63 63 63 63 63 62 62 63
Wind_Direction
224 218 208 194 187 183 201 240 264 280 295 314 327 327 323 317 319 322 314 300 289 284 283 279 275 275 276 275 271 265 261 259 259 260 261 261 263 266 268 268 268 267 267 267 267 267 267 268 269
226 221 210 200 192 186 206 227 245 268 284 302 311 314 311 307 313 321 314 306 304 299 292 288 284 283 283 281 274 266 261 257 256 256 256 257 260 263 266 267 267 268 269 270 270 270 270 270 269
225 218 207 193 180 184 204 213 218 258 284 297 303 305 304 313 337 345 338 342 345 332 316 304 293 288 286 283 276 268 263 259 256 254 253 255 258 261 264 266 267 267 268 269 269 270 271 271 272
206 199 187 178 175 187 206 203 195 251 283 298 302 297 296 6 31 16 360 358 357 345 336 322 306 295 287 283 277 271 267 264 259 255 254 255 258 262 265 267 268 268 268 269 270 271 272 273 273
185 177 172 168 173 187 206 207 171 281 291 295 299 296 360 48 40 19 0 359 357 349 347 338 327 316 306 298 291 284 277 273 266 263 262 262 263 268 270 271 272 270 269 269 269 271 272 274 274
175 172 166 164 172 187 197 207 343 314 297 291 298 322 21 40 37 21 3 357 351 343 344 343 337 332 327 317 306 299 292 287 281 278 274 271 273 275 273 273 272 268 265 265 267 271 274 275 276
170 168 162 163 175 190 190 49 332 307 297 290 310 348 15 29 31 23 9 4 354 341 336 336 336 340 343 338 325 312 301 293 286 284 282 279 278 276 274 273 272 269 268 269 272 275 278 278 278
167 165 163 166 174 175 160 270 297 295 292 288 297 330 2 24 28 21 10 6 359 347 336 328 327 339 347 348 343 331 312 298 292 289 286 284 282 280 279 278 277 276 276 276 277 279 279 278 276
168 165 170 174 169 157 152 241 273 282 282 280 286 309 350 16 23 19 9 5 3 356 345 331 323 329 336 338 343 341 331 316 305 298 293 289 287 286 286 286 285 285 283 282 282 281 280 277 276
170 173 181 181 171 161 172 218 252 265 272 272 279 298 314 344 0 9 1 360 2 0 356 350 342 334 331 335 342 342 338 332 323 311 304 298 296 295 294 294 294 291 289 287 286 285 283 281 281
179 184 188 184 179 170 172 212 237 250 258 270 279 285 299 306 314 340 340 347 355 356 355 355 354 353 345 339 344 343 341 337 331 323 316 309 305 304 303 302 301 298 295 294 291 288 286 285 285
190 192 194 192 190 184 181 207 234 244 253 263 276 287 294 299 297 305 316 325 344 350 349 350 351 351 351 345 344 344 339 334 332 330 323 312 308 308 307 307 307 305 304 300 294 289 286 285 285
202 201 201 204 205 206 199 203 227 243 254 263 271 281 292 292 295 291 303 315 323 335 338 341 342 343 348 350 347 342 337 332 330 326 319 312 308 307 306 305 304 303 302 299 296 290 287 285 283
210 211 212 215 221 226 216 209 223 241 253 262 270 279 288 290 294 291 298 305 312 322 325 325 327 328 331 337 339 339 337 332 325 321 320 316 313 311 309 309 308 304 299 294 290 286 283 280 278
218 221 225 229 233 232 228 220 225 242 254 261 268 276 285 288 290 291 295 300 307 316 319 316 315 315 315 317 320 323 324 323 321 318 318 317 315 313 311 310 309 305 301 297 293 291 288 286 285
226 228 231 236 241 242 241 232 226 236 250 257 263 272 280 285 288 290 294 296 303 311 314 313 312 309 309 308 308 308 310 310 311 313 313 313 312 311 310 310 310 310 308 305 302 298 295 292 290
233 234 235 237 246 252 255 250 230 229 240 247 257 266 274 280 286 291 294 296 300 306 309 312 310 306 306 305 303 301 301 303 305 306 306 305 305 305 305 306 306 307 306 305 302 299 296 293 292
237 238 236 235 237 238 241 244 231 225 233 240 250 262 270 278 284 288 292 296 300 304 308 310 307 304 301 301 300 297 295 296 298 298 297 298 298 298 299 300 301 301 301 300 298 296 294 292 292
234 236 236 231 225 230 229 233 226 221 228 236 248 260 270 277 282 287 291 295 299 303 306 308 304 300 297 295 294 290 289 289 290 291 291 292 292 292 293 295 296 297 297 297 295 293 291 290 290
229 231 231 226 223 231 233 237 238 233 230 234 246 258 268 275 280 287 291 294 298 302 304 303 300 296 291 288 286 283 280 282 283 284 285 286 288 289 290 291 293 295 297 296 294 292 289 288 288
230 232 229 223 218 228 236 239 238 239 236 234 241 253 264 273 279 284 288 292 296 298 299 299 297 293 290 287 284 280 277 277 279 280 282 283 285 285 286 289 293 295 297 297 295 292 289 288 289
225 227 226 224 224 226 236 243 236 236 236 234 239 250 261 268 274 279 284 288 291 293 293 295 293 290 288 286 284 279 278 279 280 280 281 283 284 287 290 293 296 297 297 296 295 292 291 291 292
214 216 225 234 239 238 236 246 246 239 240 241 244 250 258 265 269 274 280 284 286 287 288 291 292 290 289 288 286 282 279 281 283 283 284 288 292 294 295 296 296 296 295 295 293 293 294 293 293
210 219 232 241 245 248 247 251 251 242 242 244 247 251 256 261 265 269 274 278 280 280 282 286 288 289 289 289 287 283 281 282 284 285 288 291 294 295 295 295 296 295 295 294 294 294 295 294 293
209 221 233 240 244 246 241 246 240 233 235 243 247 249 250 253 257 263 270 274 274 274 277 281 284 288 289 289 287 285 284 284 284 287 290 292 293 294 294 294 295 295 294 293 292 292 292 292 291
213 224 234 243 247 248 236 240 244 246 245 250 256 257 255 254 257 261 266 268 268 269 274 279 284 287 288 287 286 284 284 285 287 289 291 292 293 294 294 294 295 295 294 292 292 292 292 291 291
224 234 244 251 254 257 248 243 249 254 259 263 268 269 266 263 262 262 262 263 265 270 274 279 283 284 284 284 284 284 285 286 288 289 290 292 293 294 295 296 295 295 294 292 291 291 292 293 293
225 234 244 249 254 257 255 252 251 251 257 260 264 268 269 269 268 266 267 268 271 275 276 278 281 281 282 282 283 284 285 286 287 289 290 292 293 294 296 297 297 296 293 292 292 293 293 295 296
226 229 236 243 247 252 257 256 252 253 255 257 261 265 269 272 273 273 275 277 280 279 280 281 278 280 281 282 282 283 284 285 286 287 289 291 293 295 296 298 298 297 295 293 293 293 294 296 296
232 231 232 235 240 245 252 254 253 255 258 262 264 267 270 272 274 276 279 280 284 284 280 278 277 279 280 280 281 282 283 284 286 287 289 291 293 296 297 298 297 297 296 295 296 297 297 298 299